| time (UTC) | temp C | wind direction | speed KPH | gust KPH | rain 1hr cm | rain 24hr cm | rain mn cm | humidity % | barometer mb |
| 20260509125002 | 10 | 268 | 3.2 | 6.4 | 0.00 | 0.00 | 0.00 | 99 | 1006.9 |
| 20260509124502 | 10 | 222 | 3.2 | 11.3 | 0.00 | 0.00 | 0.00 | 99 | 1007.1 |
| 20260509124002 | 10 | 269 | 1.6 | 4.8 | 0.00 | 0.00 | 0.00 | 99 | 1007.3 |
| 20260509123002 | 10 | 235 | 1.6 | 9.7 | 0.00 | 0.00 | 0.00 | 99 | 1007.0 |
| 20260509122501 | 10 | 214 | 6.4 | 9.7 | 0.00 | 0.00 | 0.00 | 99 | 1007.2 |
| 20260509122002 | 10 | 255 | 1.6 | 8.0 | 0.00 | 0.00 | 0.00 | 99 | 1007.2 |
| 20260509121502 | 10 | 286 | 1.6 | 4.8 | 0.00 | 0.00 | 0.00 | 99 | 1007.2 |
| 20260509121002 | 10 | 267 | 6.4 | 6.4 | 0.00 | 0.00 | 0.00 | 99 | 1007.2 |
| 20260509120502 | 10 | 298 | 4.8 | 9.7 | 0.00 | 0.00 | 0.00 | 99 | 1007.3 |
| 20260509120001 | 10 | 293 | 6.4 | 8.0 | 0.00 | 0.00 | 0.00 | 99 | 1007.0 |
| 20260509115002 | 10 | 280 | 0.0 | 6.4 | 0.00 | 0.00 | 0.00 | 99 | 1006.3 |
| 20260509114503 | 10 | 229 | 6.4 | 6.4 | 0.00 | 0.00 | 0.00 | 99 | 1006.4 |
| 20260509114002 | 10 | 222 | 3.2 | 9.7 | 0.00 | 0.00 | 0.00 | 99 | 1006.1 |
| 20260509113501 | 10 | 241 | 3.2 | 8.0 | 0.00 | 0.00 | 0.00 | 99 | 1006.1 |
| 20260509113003 | 10 | 178 | 9.7 | 14.5 | 0.00 | 0.00 | 0.00 | 99 | 1006.2 |
| 20260509112503 | 10 | 212 | 3.2 | 9.7 | 0.00 | 0.00 | 0.00 | 99 | 1006.2 |
| 20260509112002 | 10 | 233 | 4.8 | 6.4 | 0.00 | 0.00 | 0.00 | 99 | 1006.1 |
| 20260509111502 | 10 | 213 | 6.4 | 9.7 | 0.00 | 0.00 | 0.00 | 99 | 1006.3 |
| 20260509110502 | 10 | 248 | 6.4 | 8.0 | 0.00 | 0.00 | 0.00 | 99 | 1006.2 |
| 20260509110002 | 10 | 232 | 4.8 | 8.0 | 0.00 | 0.00 | 0.00 | 99 | 1006.5 |
| 20260509105501 | 10 | 233 | 3.2 | 8.0 | 0.00 | 0.00 | 0.00 | 99 | 1006.4 |
| 20260509105002 | 10 | 274 | 3.2 | 4.8 | 0.00 | 0.00 | 0.00 | 99 | 1006.5 |
| 20260509104502 | 10 | 270 | 3.2 | 4.8 | 0.00 | 0.00 | 0.00 | 99 | 1006.4 |
| 20260509104003 | 9 | 261 | 3.2 | 8.0 | 0.00 | 0.00 | 0.00 | 99 | 1006.3 |
| 20260509103501 | 9 | 261 | 3.2 | 8.0 | 0.00 | 0.00 | 0.00 | 99 | 1006.2 |
| 20260509103002 | 9 | 223 | 4.8 | 8.0 | 0.00 | 0.00 | 0.00 | 99 | 1006.6 |
| 20260509102502 | 9 | 271 | 3.2 | 6.4 | 0.00 | 0.00 | 0.00 | 99 | 1006.6 |
| 20260509102002 | 9 | 236 | 3.2 | 6.4 | 0.00 | 0.00 | 0.00 | 99 | 1006.4 |
| 20260509101502 | 9 | 252 | 0.0 | 6.4 | 0.00 | 0.00 | 0.00 | 99 | 1006.6 |
| 20260509101002 | 9 | 180 | 4.8 | 11.3 | 0.00 | 0.00 | 0.00 | 99 | 1006.7 |
| 20260509100502 | 9 | 275 | 1.6 | 6.4 | 0.00 | 0.00 | 0.00 | 99 | 1006.5 |
| 20260509100001 | 9 | 223 | 1.6 | 8.0 | 0.00 | 0.00 | 0.00 | 99 | 1006.5 |
| 20260509095502 | 8 | 194 | 4.8 | 8.0 | 0.00 | 0.00 | 0.00 | 99 | 1006.9 |
| 20260509095002 | 8 | 193 | 6.4 | 8.0 | 0.00 | 0.00 | 0.00 | 99 | 1006.8 |
| 20260509094003 | 8 | 261 | 4.8 | 8.0 | 0.00 | 0.00 | 0.00 | 99 | 1006.8 |
| 20260509093502 | 8 | 212 | 6.4 | 8.0 | 0.00 | 0.00 | 0.00 | 99 | 1006.9 |
| 20260509093002 | 8 | 235 | 1.6 | 8.0 | 0.00 | 0.00 | 0.00 | 99 | 1007.1 |
| 20260509092502 | 9 | 215 | 4.8 | 8.0 | 0.00 | 0.00 | 0.00 | 99 | 1007.0 |
| 20260509092002 | 9 | 240 | 3.2 | 6.4 | 0.00 | 0.00 | 0.00 | 99 | 1007.1 |
| 20260509091502 | 9 | 204 | 1.6 | 4.8 | 0.00 | 0.00 | 0.00 | 99 | 1006.9 |
| 20260509091002 | 9 | 204 | 3.2 | 6.4 | 0.00 | 0.00 | 0.00 | 99 | 1007.1 |
| 20260509090002 | 9 | 211 | 1.6 | 3.2 | 0.00 | 0.00 | 0.00 | 99 | 1007.0 |
| 20260509085502 | 9 | 268 | 0.0 | 3.2 | 0.00 | 0.00 | 0.00 | 99 | 1007.0 |
| 20260509085002 | 9 | 259 | 1.6 | 4.8 | 0.00 | 0.00 | 0.00 | 99 | 1007.2 |
| 20260509084502 | 9 | 270 | 1.6 | 4.8 | 0.00 | 0.00 | 0.00 | 99 | 1007.1 |
| 20260509084002 | 9 | 277 | 0.0 | 3.2 | 0.00 | 0.00 | 0.00 | 99 | 1006.8 |
| 20260509083502 | 9 | 269 | 0.0 | 3.2 | 0.00 | 0.00 | 0.00 | 99 | 1006.7 |
| 20260509083002 | 9 | 276 | 1.6 | 4.8 | 0.00 | 0.00 | 0.00 | 99 | 1007.1 |
| 20260509082502 | 9 | 251 | 1.6 | 3.2 | 0.00 | 0.00 | 0.00 | 99 | 1007.0 |
| 20260509082002 | 9 | 207 | 3.2 | 4.8 | 0.00 | 0.00 | 0.00 | 99 | 1006.8 |
| 20260509081502 | 9 | 205 | 1.6 | 3.2 | 0.00 | 0.00 | 0.00 | 99 | 1006.8 |
| 20260509080002 | 9 | 274 | 0.0 | 4.8 | 0.00 | 0.00 | 0.00 | 99 | 1007.0 |
| 20260509075502 | 9 | 259 | 1.6 | 3.2 | 0.00 | 0.00 | 0.00 | 99 | 1006.8 |
| 20260509075001 | 9 | 266 | 0.0 | 4.8 | 0.00 | 0.00 | 0.00 | 99 | 1006.8 |
| 20260509074002 | 9 | 219 | 1.6 | 3.2 | 0.00 | 0.00 | 0.00 | 99 | 1006.8 |
| 20260509073002 | 9 | 272 | 0.0 | 0.0 | 0.00 | 0.00 | 0.00 | 99 | 1007.2 |
| 20260509072502 | 9 | 279 | 0.0 | 3.2 | 0.00 | 0.00 | 0.00 | 99 | 1007.2 |
| 20260509072002 | 9 | 278 | 0.0 | 0.0 | 0.00 | 0.00 | 0.00 | 99 | 1007.3 |
| 20260509071502 | 9 | 269 | 0.0 | 0.0 | 0.00 | 0.00 | 0.00 | 99 | 1007.3 |
| 20260509071002 | 10 | 279 | 0.0 | 0.0 | 0.00 | 0.00 | 0.00 | 99 | 1007.3 |
| 20260509070502 | 10 | 277 | 0.0 | 0.0 | 0.00 | 0.00 | 0.00 | 99 | 1007.3 |
| 20260509070002 | 10 | 279 | 0.0 | 0.0 | 0.00 | 0.00 | 0.00 | 99 | 1007.3 |
| 20260509065502 | 10 | 278 | 1.6 | 4.8 | 0.00 | 0.00 | 0.00 | 99 | 1007.5 |
| 20260509065002 | 10 | 279 | 0.0 | 3.2 | 0.00 | 0.00 | 0.00 | 99 | 1007.4 |
| 20260509064501 | 10 | 278 | 0.0 | 3.2 | 0.00 | 0.00 | 0.00 | 99 | 1007.7 |
| 20260509064002 | 10 | 279 | 0.0 | 3.2 | 0.00 | 0.00 | 0.00 | 99 | 1007.3 |
| 20260509063502 | 10 | 277 | 0.0 | 0.0 | 0.00 | 0.00 | 0.00 | 99 | 1007.6 |
| 20260509063002 | 10 | 270 | 0.0 | 3.2 | 0.00 | 0.00 | 0.00 | 99 | 1007.6 |
| 20260509062502 | 10 | 269 | 1.6 | 3.2 | 0.00 | 0.00 | 0.00 | 99 | 1007.5 |
| 20260509062002 | 10 | 270 | 1.6 | 4.8 | 0.00 | 0.00 | 0.00 | 99 | 1007.7 |
| 20260509061502 | 10 | 274 | 0.0 | 4.8 | 0.00 | 0.00 | 0.00 | 98 | 1007.7 |
| 20260509061002 | 10 | 280 | 0.0 | 3.2 | 0.00 | 0.00 | 0.00 | 98 | 1008.0 |
| 20260509060502 | 10 | 274 | 3.2 | 4.8 | 0.00 | 0.00 | 0.00 | 98 | 1007.8 |
| 20260509060002 | 10 | 269 | 0.0 | 3.2 | 0.00 | 0.00 | 0.00 | 98 | 1007.9 |
| 20260509055502 | 10 | 224 | 3.2 | 4.8 | 0.00 | 0.00 | 0.00 | 98 | 1008.2 |
| 20260509055002 | 10 | 267 | 1.6 | 8.0 | 0.00 | 0.00 | 0.00 | 98 | 1007.9 |
| 20260509054502 | 11 | 278 | 1.6 | 3.2 | 0.00 | 0.00 | 0.00 | 98 | 1008.2 |
| 20260509054002 | 11 | 270 | 3.2 | 4.8 | 0.00 | 0.00 | 0.00 | 98 | 1007.8 |
| 20260509053502 | 11 | 274 | 1.6 | 8.0 | 0.00 | 0.00 | 0.00 | 98 | 1007.8 |
| 20260509053002 | 11 | 266 | 3.2 | 4.8 | 0.00 | 0.00 | 0.00 | 98 | 1008.1 |
| 20260509052502 | 11 | 270 | 1.6 | 4.8 | 0.00 | 0.00 | 0.00 | 98 | 1008.1 |
| 20260509052002 | 11 | 277 | 1.6 | 3.2 | 0.00 | 0.00 | 0.00 | 97 | 1008.1 |
| 20260509051502 | 11 | 242 | 3.2 | 4.8 | 0.00 | 0.00 | 0.00 | 97 | 1008.1 |
| 20260509051001 | 11 | 269 | 3.2 | 4.8 | 0.00 | 0.00 | 0.00 | 97 | 1007.8 |
| 20260509050502 | 11 | 277 | 1.6 | 4.8 | 0.00 | 0.00 | 0.00 | 97 | 1008.2 |
| 20260509050002 | 11 | 242 | 3.2 | 4.8 | 0.00 | 0.00 | 0.03 | 96 | 1008.0 |
| 20260509045502 | 11 | 246 | 3.2 | 4.8 | 0.00 | 0.00 | 0.03 | 96 | 1008.1 |
| 20260509044502 | 11 | 277 | 3.2 | 4.8 | 0.00 | 0.00 | 0.03 | 95 | 1008.0 |
| 20260509044002 | 11 | 253 | 1.6 | 6.4 | 0.00 | 0.00 | 0.03 | 95 | 1008.2 |
| 20260509043502 | 11 | 277 | 4.8 | 8.0 | 0.00 | 0.00 | 0.03 | 95 | 1008.2 |
| 20260509042502 | 12 | 242 | 3.2 | 6.4 | 0.00 | 0.00 | 0.03 | 94 | 1008.1 |
| 20260509041502 | 12 | 284 | 4.8 | 8.0 | 0.00 | 0.00 | 0.03 | 93 | 1008.3 |
| 20260509041002 | 12 | 268 | 3.2 | 4.8 | 0.00 | 0.00 | 0.03 | 93 | 1008.3 |
| 20260509040502 | 12 | 231 | 3.2 | 4.8 | 0.00 | 0.00 | 0.03 | 93 | 1008.3 |
| 20260509040002 | 12 | 277 | 1.6 | 6.4 | 0.00 | 0.00 | 0.03 | 93 | 1008.5 |
| 20260509035502 | 12 | 263 | 3.2 | 4.8 | 0.00 | 0.00 | 0.03 | 92 | 1008.6 |
| 20260509034502 | 12 | 250 | 4.8 | 6.4 | 0.00 | 0.00 | 0.03 | 92 | 1008.3 |
| 20260509034001 | 12 | 256 | 3.2 | 6.4 | 0.00 | 0.00 | 0.03 | 91 | 1008.4 |
| 20260509033503 | 12 | 204 | 3.2 | 6.4 | 0.00 | 0.00 | 0.03 | 91 | 1008.4 |
| 20260509033002 | 12 | 203 | 4.8 | 6.4 | 0.00 | 0.00 | 0.03 | 90 | 1008.5 |
| 20260509032502 | 12 | 275 | 4.8 | 8.0 | 0.00 | 0.00 | 0.03 | 89 | 1008.3 |
| 20260509032002 | 12 | 246 | 6.4 | 9.7 | 0.00 | 0.00 | 0.03 | 88 | 1008.3 |
| 20260509031502 | 12 | 279 | 1.6 | 3.2 | 0.00 | 0.00 | 0.03 | 87 | 1008.5 |
| 20260509031002 | 12 | 263 | 3.2 | 4.8 | 0.00 | 0.00 | 0.03 | 86 | 1008.5 |
| 20260509030502 | 12 | 225 | 4.8 | 6.4 | 0.00 | 0.00 | 0.03 | 85 | 1008.4 |
| 20260509030002 | 12 | 203 | 3.2 | 6.4 | 0.00 | 0.00 | 0.03 | 85 | 1008.4 |
| 20260509025002 | 13 | 268 | 4.8 | 6.4 | 0.00 | 0.00 | 0.03 | 84 | 1008.7 |
| 20260509024502 | 13 | 267 | 3.2 | 6.4 | 0.00 | 0.00 | 0.03 | 83 | 1008.6 |
| 20260509024002 | 13 | 223 | 4.8 | 6.4 | 0.00 | 0.00 | 0.03 | 82 | 1008.7 |
| 20260509023502 | 13 | 213 | 3.2 | 6.4 | 0.00 | 0.00 | 0.03 | 82 | 1008.9 |
| 20260509023002 | 13 | 276 | 3.2 | 6.4 | 0.00 | 0.00 | 0.03 | 82 | 1008.6 |
| 20260509022502 | 13 | 244 | 4.8 | 6.4 | 0.00 | 0.00 | 0.03 | 82 | 1008.7 |
| 20260509022001 | 13 | 234 | 4.8 | 6.4 | 0.00 | 0.00 | 0.03 | 81 | 1008.6 |
| 20260509021502 | 13 | 252 | 3.2 | 4.8 | 0.00 | 0.00 | 0.03 | 81 | 1008.5 |
| 20260509021002 | 13 | 278 | 1.6 | 4.8 | 0.00 | 0.00 | 0.03 | 81 | 1008.5 |
| 20260509020502 | 13 | 279 | 1.6 | 8.0 | 0.00 | 0.00 | 0.03 | 81 | 1008.6 |
| 20260509020001 | 14 | 273 | 3.2 | 6.4 | 0.00 | 0.00 | 0.03 | 81 | 1008.4 |
| 20260509015502 | 14 | 267 | 3.2 | 6.4 | 0.00 | 0.00 | 0.03 | 81 | 1008.2 |
| 20260509015002 | 14 | 276 | 1.6 | 4.8 | 0.00 | 0.00 | 0.03 | 80 | 1008.3 |
| 20260509014002 | 14 | 255 | 3.2 | 4.8 | 0.00 | 0.00 | 0.03 | 79 | 1008.1 |
| 20260509013502 | 15 | 212 | 4.8 | 11.3 | 0.00 | 0.00 | 0.03 | 79 | 1007.9 |
| 20260509012502 | 15 | 265 | 3.2 | 6.4 | 0.00 | 0.00 | 0.03 | 78 | 1008.0 |
| 20260509012002 | 15 | 281 | 1.6 | 4.8 | 0.00 | 0.00 | 0.03 | 78 | 1007.8 |
| 20260509011502 | 15 | 227 | 1.6 | 11.3 | 0.00 | 0.00 | 0.03 | 78 | 1008.2 |
| 20260509011002 | 15 | 253 | 3.2 | 8.0 | 0.00 | 0.00 | 0.03 | 77 | 1008.1 |
| 20260509010002 | 15 | 235 | 6.4 | 9.7 | 0.00 | 0.00 | 0.03 | 74 | 1008.0 |
| 20260509005502 | 15 | 274 | 1.6 | 4.8 | 0.00 | 0.00 | 0.03 | 72 | 1008.1 |
| 20260509005002 | 15 | 239 | 4.8 | 6.4 | 0.00 | 0.00 | 0.03 | 71 | 1008.1 |
| 20260509004502 | 16 | 278 | 1.6 | 4.8 | 0.00 | 0.00 | 0.03 | 69 | 1007.7 |
| 20260509004002 | 16 | 265 | 3.2 | 4.8 | 0.00 | 0.00 | 0.03 | 68 | 1008.0 |
| 20260509003502 | 16 | 278 | 1.6 | 3.2 | 0.00 | 0.00 | 0.03 | 67 | 1008.0 |
| 20260509003002 | 16 | 278 | 1.6 | 6.4 | 0.00 | 0.00 | 0.03 | 65 | 1007.9 |
| 20260509002503 | 16 | 267 | 1.6 | 6.4 | 0.00 | 0.00 | 0.03 | 63 | 1007.8 |
| 20260509002002 | 16 | 257 | 3.2 | 4.8 | 0.00 | 0.00 | 0.03 | 63 | 1007.9 |
| 20260509001501 | 16 | 253 | 3.2 | 6.4 | 0.00 | 0.00 | 0.03 | 63 | 1008.1 |
| 20260509001002 | 17 | 280 | 0.0 | 4.8 | 0.00 | 0.00 | 0.03 | 64 | 1008.1 |
| 20260509000502 | 17 | 281 | 4.8 | 6.4 | 0.00 | 0.00 | 0.03 | 63 | 1008.0 |
| 20260509000002 | 17 | 276 | 1.6 | 4.8 | 0.00 | 0.00 | 0.03 | 64 | 1008.0 |
| 20260508235502 | 17 | 253 | 3.2 | 6.4 | 0.00 | 0.03 | 0.03 | 64 | 1008.0 |
| 20260508235002 | 17 | 263 | 3.2 | 6.4 | 0.00 | 0.03 | 0.03 | 65 | 1007.9 |
| 20260508234001 | 18 | 272 | 1.6 | 4.8 | 0.00 | 0.00 | 0.03 | 64 | 1007.9 |
| 20260508233502 | 17 | 255 | 4.8 | 8.0 | 0.00 | 0.00 | 0.03 | 65 | 1007.9 |
| 20260508233002 | 17 | 276 | 1.6 | 6.4 | 0.00 | 0.00 | 0.03 | 66 | 1007.9 |
| 20260508232002 | 18 | 275 | 1.6 | 4.8 | 0.00 | 0.00 | 0.03 | 64 | 1008.1 |
| 20260508231002 | 17 | 231 | 3.2 | 6.4 | 0.00 | 0.00 | 0.03 | 66 | 1008.1 |
| 20260508230502 | 17 | 263 | 1.6 | 6.4 | 0.00 | 0.00 | 0.03 | 64 | 1008.1 |
| 20260508230002 | 17 | 288 | 3.2 | 9.7 | 0.00 | 0.00 | 0.03 | 64 | 1008.1 |
| 20260508225502 | 18 | 242 | 4.8 | 8.0 | 0.00 | 0.00 | 0.03 | 65 | 1008.2 |
| 20260508225002 | 19 | 276 | 3.2 | 6.4 | 0.00 | 0.00 | 0.03 | 61 | 1008.3 |
| 20260508224501 | 19 | 243 | 6.4 | 9.7 | 0.00 | 0.00 | 0.03 | 58 | 1008.1 |
| 20260508224002 | 19 | 271 | 3.2 | 8.0 | 0.00 | 0.00 | 0.03 | 60 | 1008.3 |
| 20260508223002 | 18 | 232 | 4.8 | 6.4 | 0.00 | 0.00 | 0.03 | 62 | 1008.5 |
| 20260508222502 | 18 | 279 | 1.6 | 9.7 | 0.00 | 0.00 | 0.03 | 58 | 1008.3 |
| 20260508222002 | 18 | 304 | 6.4 | 11.3 | 0.00 | 0.00 | 0.03 | 63 | 1008.2 |
| 20260508221502 | 19 | 206 | 4.8 | 11.3 | 0.00 | 0.00 | 0.03 | 53 | 1008.1 |
| 20260508221002 | 19 | 274 | 4.8 | 8.0 | 0.00 | 0.00 | 0.03 | 62 | 1008.2 |
| 20260508220502 | 19 | 260 | 4.8 | 9.7 | 0.00 | 0.00 | 0.03 | 63 | 1008.3 |
| 20260508220002 | 18 | 258 | 3.2 | 6.4 | 0.00 | 0.00 | 0.03 | 62 | 1008.3 |
| 20260508215501 | 18 | 275 | 3.2 | 6.4 | 0.00 | 0.00 | 0.03 | 63 | 1008.3 |
| 20260508214502 | 18 | 285 | 6.4 | 9.7 | 0.00 | 0.00 | 0.03 | 59 | 1008.3 |
| 20260508214002 | 19 | 200 | 6.4 | 9.7 | 0.00 | 0.00 | 0.03 | 61 | 1008.1 |
| 20260508213502 | 18 | 220 | 3.2 | 4.8 | 0.00 | 0.00 | 0.03 | 63 | 1008.5 |
| 20260508213002 | 20 | 286 | 3.2 | 9.7 | 0.00 | 0.00 | 0.03 | 61 | 1008.3 |
| 20260508212502 | 19 | 272 | 1.6 | 8.0 | 0.00 | 0.00 | 0.03 | 61 | 1008.4 |
| 20260508212002 | 18 | 210 | 6.4 | 8.0 | 0.00 | 0.00 | 0.03 | 63 | 1008.5 |
| 20260508211501 | 17 | 188 | 8.0 | 11.3 | 0.00 | 0.00 | 0.03 | 64 | 1008.6 |
| 20260508211002 | 18 | 283 | 4.8 | 9.7 | 0.00 | 0.00 | 0.03 | 64 | 1008.7 |
| 20260508210502 | 18 | 296 | 8.0 | 14.5 | 0.00 | 0.00 | 0.03 | 62 | 1008.5 |
| 20260508210002 | 18 | 260 | 11.3 | 16.1 | 0.00 | 0.00 | 0.03 | 61 | 1008.8 |
| 20260508205502 | 18 | 249 | 4.8 | 8.0 | 0.00 | 0.00 | 0.03 | 60 | 1008.7 |
| 20260508205003 | 18 | 268 | 3.2 | 6.4 | 0.00 | 0.00 | 0.03 | 59 | 1008.7 |
| 20260508204501 | 19 | 284 | 3.2 | 8.0 | 0.00 | 0.00 | 0.03 | 61 | 1009.0 |
| 20260508204002 | 18 | 260 | 3.2 | 11.3 | 0.00 | 0.00 | 0.03 | 60 | 1008.9 |
| 20260508203502 | 18 | 284 | 1.6 | 4.8 | 0.00 | 0.00 | 0.03 | 60 | 1008.7 |
| 20260508203001 | 18 | 213 | 3.2 | 9.7 | 0.00 | 0.00 | 0.03 | 61 | 1009.0 |
| 20260508202502 | 18 | 218 | 3.2 | 6.4 | 0.00 | 0.00 | 0.03 | 62 | 1009.0 |
| 20260508202002 | 17 | 288 | 0.0 | 4.8 | 0.00 | 0.00 | 0.03 | 63 | 1009.3 |
| 20260508201002 | 18 | 251 | 3.2 | 6.4 | 0.00 | 0.00 | 0.03 | 64 | 1009.2 |
| 20260508200502 | 18 | 225 | 1.6 | 4.8 | 0.00 | 0.00 | 0.03 | 66 | 1009.4 |
| 20260508200001 | 18 | 238 | 3.2 | 9.7 | 0.00 | 0.00 | 0.03 | 63 | 1009.4 |
| 20260508195503 | 18 | 287 | 0.0 | 4.8 | 0.00 | 0.00 | 0.03 | 65 | 1009.8 |
| 20260508195002 | 18 | 162 | 6.4 | 9.7 | 0.00 | 0.00 | 0.03 | 61 | 1009.6 |
| 20260508194502 | 18 | 284 | 1.6 | 3.2 | 0.00 | 0.00 | 0.03 | 65 | 1009.6 |
| 20260508194002 | 18 | 265 | 3.2 | 6.4 | 0.00 | 0.00 | 0.03 | 60 | 1009.7 |
| 20260508193502 | 17 | 297 | 3.2 | 4.8 | 0.00 | 0.00 | 0.03 | 66 | 1010.0 |
| 20260508193002 | 18 | 285 | 3.2 | 4.8 | 0.00 | 0.00 | 0.03 | 65 | 1009.9 |
| 20260508192502 | 18 | 282 | 3.2 | 8.0 | 0.00 | 0.00 | 0.03 | 64 | 1009.9 |
| 20260508192002 | 18 | 268 | 1.6 | 3.2 | 0.00 | 0.00 | 0.03 | 64 | 1009.7 |
| 20260508191502 | 17 | 296 | 1.6 | 6.4 | 0.00 | 0.00 | 0.03 | 65 | 1010.1 |
| 20260508191002 | 18 | 259 | 4.8 | 6.4 | 0.00 | 0.00 | 0.03 | 62 | 1009.9 |
| 20260508190502 | 18 | 228 | 4.8 | 8.0 | 0.00 | 0.00 | 0.03 | 61 | 1010.1 |
| 20260508190002 | 18 | 249 | 3.2 | 9.7 | 0.00 | 0.00 | 0.03 | 65 | 1010.1 |
| 20260508185001 | 18 | 316 | 1.6 | 8.0 | 0.00 | 0.00 | 0.03 | 64 | 1010.0 |
| 20260508184002 | 18 | 181 | 4.8 | 8.0 | 0.00 | 0.00 | 0.03 | 64 | 1010.3 |
| 20260508183502 | 18 | 195 | 4.8 | 11.3 | 0.00 | 0.00 | 0.03 | 64 | 1010.5 |
| 20260508183002 | 18 | 277 | 3.2 | 4.8 | 0.00 | 0.00 | 0.03 | 63 | 1010.6 |
| 20260508182502 | 18 | 194 | 6.4 | 8.0 | 0.00 | 0.00 | 0.03 | 61 | 1010.7 |
| 20260508182003 | 18 | 246 | 4.8 | 6.4 | 0.00 | 0.00 | 0.03 | 62 | 1010.5 |
| 20260508181502 | 17 | 308 | 1.6 | 6.4 | 0.00 | 0.00 | 0.03 | 65 | 1010.7 |
| 20260508181002 | 17 | 119 | 3.2 | 8.0 | 0.00 | 0.00 | 0.03 | 62 | 1010.6 |
| 20260508180502 | 17 | 318 | 3.2 | 6.4 | 0.00 | 0.00 | 0.03 | 62 | 1010.7 |
| 20260508180001 | 17 | 168 | 6.4 | 8.0 | 0.00 | 0.00 | 0.03 | 65 | 1010.8 |
| 20260508175002 | 17 | 300 | 6.4 | 11.3 | 0.00 | 0.00 | 0.03 | 65 | 1010.8 |
| 20260508174502 | 17 | 267 | 1.6 | 8.0 | 0.00 | 0.00 | 0.03 | 66 | 1010.7 |
| 20260508174002 | 18 | 255 | 4.8 | 9.7 | 0.00 | 0.00 | 0.03 | 64 | 1011.0 |
| 20260508173502 | 18 | 46 | 4.8 | 6.4 | 0.00 | 0.00 | 0.03 | 67 | 1011.0 |
| 20260508173001 | 17 | 207 | 4.8 | 6.4 | 0.00 | 0.00 | 0.03 | 69 | 1011.1 |
| 20260508172502 | 17 | 224 | 3.2 | 4.8 | 0.00 | 0.00 | 0.03 | 68 | 1011.2 |
| 20260508172002 | 17 | 239 | 3.2 | 4.8 | 0.00 | 0.00 | 0.03 | 67 | 1011.3 |
| 20260508171502 | 17 | 194 | 4.8 | 9.7 | 0.00 | 0.00 | 0.03 | 67 | 1011.3 |
| 20260508171002 | 17 | 237 | 4.8 | 6.4 | 0.00 | 0.00 | 0.03 | 69 | 1011.5 |
| 20260508170502 | 17 | 249 | 1.6 | 8.0 | 0.00 | 0.00 | 0.03 | 72 | 1011.6 |
| 20260508170002 | 16 | 298 | 1.6 | 6.4 | 0.00 | 0.00 | 0.03 | 71 | 1011.7 |
| 20260508165502 | 16 | 198 | 4.8 | 6.4 | 0.00 | 0.00 | 0.03 | 72 | 1011.8 |
| 20260508165001 | 16 | 247 | 4.8 | 6.4 | 0.00 | 0.00 | 0.03 | 72 | 1011.7 |
| 20260508164502 | 16 | 286 | 3.2 | 6.4 | 0.00 | 0.00 | 0.03 | 74 | 1011.9 |
| 20260508164002 | 16 | 217 | 3.2 | 4.8 | 0.00 | 0.00 | 0.03 | 74 | 1012.1 |
| 20260508163501 | 16 | 235 | 3.2 | 4.8 | 0.00 | 0.00 | 0.03 | 72 | 1012.1 |
| 20260508163002 | 16 | 186 | 4.8 | 9.7 | 0.00 | 0.00 | 0.03 | 73 | 1012.2 |
| 20260508162502 | 16 | 268 | 3.2 | 4.8 | 0.00 | 0.00 | 0.03 | 73 | 1012.4 |
| 20260508162002 | 16 | 191 | 4.8 | 6.4 | 0.00 | 0.00 | 0.03 | 75 | 1012.3 |
| 20260508161503 | 16 | 277 | 3.2 | 4.8 | 0.00 | 0.00 | 0.03 | 74 | 1012.4 |
| 20260508161001 | 16 | 276 | 1.6 | 4.8 | 0.00 | 0.00 | 0.03 | 74 | 1012.4 |
| 20260508160502 | 16 | 259 | 3.2 | 8.0 | 0.00 | 0.00 | 0.03 | 74 | 1012.3 |
| 20260508160002 | 15 | 198 | 3.2 | 6.4 | 0.00 | 0.00 | 0.03 | 76 | 1012.4 |
| 20260508155502 | 15 | 257 | 4.8 | 9.7 | 0.00 | 0.00 | 0.03 | 78 | 1012.6 |
| 20260508155002 | 15 | 265 | 3.2 | 9.7 | 0.00 | 0.00 | 0.03 | 78 | 1012.4 |
| 20260508154502 | 15 | 261 | 1.6 | 4.8 | 0.00 | 0.00 | 0.03 | 78 | 1012.4 |
| 20260508154002 | 15 | 236 | 4.8 | 8.0 | 0.00 | 0.00 | 0.03 | 77 | 1012.7 |
| 20260508153502 | 15 | 261 | 6.4 | 8.0 | 0.00 | 0.00 | 0.03 | 77 | 1012.5 |
| 20260508153002 | 15 | 283 | 4.8 | 9.7 | 0.00 | 0.00 | 0.03 | 77 | 1012.6 |
| 20260508152502 | 15 | 217 | 4.8 | 8.0 | 0.00 | 0.00 | 0.03 | 78 | 1012.6 |
| 20260508152002 | 15 | 283 | 3.2 | 8.0 | 0.00 | 0.00 | 0.03 | 78 | 1012.5 |
| 20260508151502 | 15 | 194 | 3.2 | 8.0 | 0.00 | 0.00 | 0.03 | 77 | 1012.8 |
| 20260508151002 | 15 | 198 | 6.4 | 8.0 | 0.00 | 0.00 | 0.03 | 76 | 1012.6 |
| 20260508150003 | 16 | 229 | 3.2 | 4.8 | 0.00 | 0.00 | 0.03 | 76 | 1012.7 |
| 20260508145502 | 15 | 213 | 3.2 | 11.3 | 0.00 | 0.00 | 0.03 | 75 | 1012.9 |
| 20260508145002 | 15 | 200 | 4.8 | 8.0 | 0.00 | 0.00 | 0.03 | 76 | 1012.8 |
| 20260508144502 | 15 | 213 | 3.2 | 6.4 | 0.00 | 0.00 | 0.03 | 76 | 1012.8 |
| 20260508144002 | 15 | 200 | 4.8 | 9.7 | 0.00 | 0.00 | 0.03 | 79 | 1012.8 |
| 20260508143502 | 15 | 199 | 4.8 | 6.4 | 0.00 | 0.00 | 0.03 | 79 | 1012.8 |
| 20260508143002 | 14 | 271 | 4.8 | 9.7 | 0.00 | 0.00 | 0.03 | 81 | 1013.0 |
| 20260508142502 | 14 | 207 | 6.4 | 11.3 | 0.00 | 0.00 | 0.03 | 81 | 1013.0 |
| 20260508142001 | 14 | 264 | 3.2 | 4.8 | 0.00 | 0.00 | 0.03 | 83 | 1013.1 |
| 20260508141502 | 14 | 212 | 4.8 | 6.4 | 0.00 | 0.00 | 0.03 | 85 | 1012.9 |
| 20260508141002 | 13 | 225 | 3.2 | 8.0 | 0.00 | 0.00 | 0.03 | 85 | 1013.0 |
| 20260508140502 | 13 | 183 | 6.4 | 9.7 | 0.00 | 0.00 | 0.03 | 87 | 1013.0 |
| 20260508140003 | 13 | 227 | 6.4 | 8.0 | 0.00 | 0.00 | 0.03 | 88 | 1013.0 |
| 20260508135502 | 13 | 216 | 4.8 | 8.0 | 0.00 | 0.00 | 0.03 | 88 | 1012.9 |
| 20260508135002 | 12 | 289 | 3.2 | 6.4 | 0.00 | 0.00 | 0.03 | 91 | 1013.0 |
| 20260508134002 | 12 | 283 | 3.2 | 8.0 | 0.00 | 0.00 | 0.03 | 92 | 1012.8 |
| 20260508133501 | 12 | 203 | 8.0 | 11.3 | 0.00 | 0.00 | 0.03 | 92 | 1012.7 |
| 20260508133002 | 12 | 281 | 3.2 | 4.8 | 0.00 | 0.00 | 0.03 | 93 | 1012.9 |
| 20260508132502 | 12 | 213 | 3.2 | 4.8 | 0.00 | 0.00 | 0.03 | 93 | 1013.0 |
| 20260508132001 | 12 | 193 | 3.2 | 4.8 | 0.00 | 0.00 | 0.03 | 93 | 1013.0 |
| 20260508131502 | 12 | 275 | 3.2 | 8.0 | 0.00 | 0.00 | 0.03 | 92 | 1013.0 |
| 20260508131002 | 12 | 269 | 1.6 | 6.4 | 0.00 | 0.00 | 0.03 | 94 | 1012.9 |
| 20260508130502 | 11 | 257 | 4.8 | 4.8 | 0.00 | 0.00 | 0.03 | 95 | 1013.0 |
| 20260508130002 | 11 | 290 | 1.6 | 8.0 | 0.00 | 0.00 | 0.03 | 96 | 1013.0 |
| 20260508125502 | 11 | 265 | 3.2 | 4.8 | 0.00 | 0.00 | 0.03 | 97 | 1013.2 |